QPF
0.00 0.00 0.00 0.00 0.00 0.00 0.00 0.00 0.00 0.00 0.00 0.01 0.00 0.00 0.00 0.00 0.00 0.00 0.00 0.00 0.00 0.00 0.00 0.00 0.00 0.00 0.00 0.00 0.00 0.00 0.00 0.00 0.00 0.00 0.00 0.00 0.00 0.00 0.00 0.00 0.00 0.00 0.00 0.00
0.00 0.00 0.00 0.00 0.00 0.00 0.00 0.00 0.00 0.00 0.00 0.00 0.00 0.00 0.00 0.00 0.00 0.00 0.00 0.00 0.00 0.00 0.00 0.00 0.00 0.00 0.00 0.00 0.00 0.00 0.00 0.00 0.00 0.00 0.00 0.00 0.00 0.00 0.00 0.00 0.00 0.00 0.00 0.00
0.00 0.00 0.00 0.00 0.00 0.00 0.00 0.00 0.00 0.00 0.00 0.00 0.00 0.00 0.00 0.00 0.00 0.00 0.00 0.00 0.00 0.00 0.00 0.00 0.00 0.00 0.00 0.00 0.00 0.00 0.00 0.00 0.00 0.00 0.00 0.00 0.00 0.00 0.00 0.00 0.00 0.00 0.00 0.00
0.00 0.00 0.00 0.00 0.00 0.00 0.00 0.00 0.00 0.00 0.00 0.00 0.00 0.00 0.00 0.00 0.00 0.00 0.00 0.00 0.00 0.00 0.00 0.00 0.00 0.00 0.00 0.00 0.00 0.00 0.00 0.00 0.00 0.00 0.00 0.00 0.00 0.00 0.00 0.00 0.00 0.00 0.00 0.00
0.01 0.00 0.00 0.00 0.00 0.00 0.00 0.00 0.00 0.00 0.00 0.00 0.00 0.00 0.00 0.00 0.00 0.00 0.00 0.00 0.00 0.00 0.00 0.00 0.00 0.01 0.01 0.00 0.01 0.00 0.00 0.00 0.00 0.00 0.00 0.00 0.00 0.00 0.00 0.00 0.00 0.00 0.00 0.00
0.01 0.01 0.00 0.00 0.00 0.00 0.00 0.00 0.00 0.00 0.00 0.00 0.00 0.00 0.01 0.00 0.00 0.00 0.00 0.00 0.00 0.00 0.00 0.00 0.00 0.00 0.00 0.01 0.01 0.01 0.00 0.00 0.00 0.00 0.00 0.00 0.00 0.00 0.00 0.00 0.00 0.00 0.00 0.00
0.01 0.01 0.01 0.00 0.00 0.00 0.00 0.00 0.00 0.00 0.00 0.00 0.00 0.01 0.01 0.00 0.00 0.00 0.00 0.00 0.00 0.00 0.00 0.00 0.00 0.00 0.00 0.00 0.00 0.00 0.01 0.00 0.00 0.00 0.00 0.00 0.00 0.00 0.00 0.00 0.00 0.00 0.00 0.00
0.02 0.03 0.02 0.00 0.00 0.00 0.00 0.00 0.00 0.00 0.00 0.00 0.00 0.00 0.00 0.00 0.00 0.00 0.00 0.00 0.00 0.00 0.00 0.00 0.00 0.00 0.00 0.00 0.01 0.00 0.00 0.00 0.00 0.00 0.00 0.00 0.00 0.00 0.00 0.00 0.00 0.00 0.00 0.00
0.01 0.01 0.01 0.00 0.00 0.00 0.00 0.00 0.00 0.00 0.00 0.00 0.00 0.00 0.00 0.00 0.00 0.00 0.00 0.00 0.00 0.00 0.00 0.00 0.00 0.00 0.00 0.00 0.00 0.00 0.00 0.00 0.00 0.00 0.00 0.00 0.00 0.00 0.00 0.00 0.00 0.00 0.00 0.00
0.00 0.01 0.01 0.00 0.00 0.00 0.00 0.00 0.00 0.00 0.00 0.00 0.00 0.00 0.00 0.00 0.00 0.00 0.00 0.00 0.00 0.00 0.00 0.00 0.00 0.00 0.00 0.00 0.00 0.00 0.00 0.00 0.00 0.00 0.00 0.00 0.00 0.00 0.00 0.00 0.00 0.00 0.00 0.00
0.00 0.00 0.00 0.00 0.00 0.00 0.00 0.00 0.00 0.00 0.00 0.00 0.00 0.00 0.00 0.00 0.00 0.00 0.00 0.00 0.00 0.00 0.00 0.00 0.00 0.00 0.00 0.00 0.00 0.00 0.00 0.00 0.00 0.00 0.00 0.00 0.00 0.00 0.00 0.00 0.00 0.00 0.00 0.00
0.00 0.00 0.00 0.00 0.00 0.00 0.00 0.00 0.01 0.01 0.01 0.01 0.01 0.01 0.00 0.00 0.00 0.00 0.00 0.00 0.00 0.00 0.00 0.00 0.00 0.00 0.00 0.01 0.01 0.00 0.00 0.00 0.00 0.00 0.00 0.00 0.00 0.00 0.00 0.00 0.00 0.00 0.00 0.00
0.00 0.00 0.00 0.00 0.00 0.01 0.01 0.02 0.02 0.01 0.01 0.01 0.01 0.01 0.00 0.00 0.00 0.00 0.00 0.00 0.00 0.00 0.00 0.00 0.00 0.00 0.00 0.00 0.00 0.01 0.01 0.00 0.00 0.00 0.00 0.00 0.00 0.00 0.00 0.00 0.00 0.00 0.00 0.00
0.00 0.00 0.01 0.01 0.01 0.01 0.02 0.02 0.01 0.01 0.01 0.01 0.00 0.00 0.00 0.00 0.00 0.00 0.00 0.00 0.00 0.00 0.00 0.00 0.00 0.00 0.00 0.00 0.00 0.00 0.01 0.01 0.00 0.00 0.00 0.00 0.00 0.00 0.00 0.00 0.00 0.00 0.00 0.00
0.00 0.00 0.01 0.01 0.02 0.02 0.01 0.01 0.01 0.01 0.00 0.00 0.00 0.00 0.00 0.00 0.00 0.00 0.00 0.00 0.00 0.00 0.00 0.00 0.00 0.00 0.00 0.00 0.00 0.00 0.00 0.00 0.00 0.00 0.00 0.00 0.00 0.00 0.00 0.00 0.00 0.00 0.00 0.00
0.01 0.01 0.01 0.01 0.01 0.01 0.01 0.01 0.01 0.01 0.01 0.01 0.01 0.01 0.01 0.01 0.01 0.01 0.00 0.00 0.00 0.00 0.00 0.00 0.00 0.00 0.00 0.00 0.00 0.00 0.00 0.00 0.00 0.00 0.00 0.00 0.00 0.00 0.00 0.00 0.00 0.00 0.00 0.00
0.01 0.01 0.01 0.01 0.01 0.01 0.01 0.01 0.01 0.01 0.01 0.01 0.01 0.01 0.01 0.01 0.01 0.01 0.00 0.00 0.00 0.00 0.00 0.00 0.00 0.00 0.00 0.00 0.00 0.01 0.01 0.01 0.01 0.00 0.00 0.00 0.00 0.01 0.01 0.01 0.01 0.01 0.01 0.01
0.01 0.01 0.01 0.01 0.01 0.01 0.01 0.01 0.01 0.00 0.00 0.00 0.00 0.01 0.01 0.01 0.01 0.01 0.01 0.01 0.01 0.01 0.01 0.01 0.00 0.00 0.00 0.00 0.01 0.01 0.01 0.01 0.01 0.01 0.01 0.01 0.01 0.01 0.01 0.01 0.01 0.01 0.01 0.01
0.01 0.01 0.01 0.01 0.01 0.01 0.01 0.00 0.01 0.00 0.00 0.00 0.01 0.01 0.01 0.01 0.01 0.02 0.02 0.02 0.02 0.01 0.01 0.01 0.01 0.00 0.00 0.01 0.01 0.01 0.01 0.01 0.01 0.01 0.01 0.01 0.01 0.01 0.01 0.01 0.01 0.01 0.01 0.01
0.01 0.01 0.01 0.01 0.01 0.01 0.01 0.01 0.01 0.01 0.01 0.01 0.01 0.01 0.01 0.02 0.02 0.02 0.02 0.02 0.01 0.01 0.01 0.01 0.01 0.01 0.01 0.01 0.02 0.02 0.02 0.02 0.02 0.02 0.02 0.02 0.02 0.01 0.01 0.01 0.01 0.01 0.01 0.01
0.01 0.01 0.01 0.01 0.01 0.00 0.00 0.00 0.00 0.00 0.00 0.01 0.01 0.01 0.02 0.02 0.02 0.02 0.01 0.01 0.01 0.01 0.00 0.00 0.00 0.01 0.01 0.01 0.02 0.02 0.02 0.02 0.02 0.02 0.02 0.02 0.02 0.01 0.01 0.01 0.01 0.01 0.01 0.01
0.01 0.01 0.01 0.01 0.01 0.01 0.01 0.01 0.01 0.01 0.01 0.01 0.01 0.01 0.02 0.02 0.01 0.01 0.01 0.01 0.00 0.00 0.00 0.00 0.01 0.01 0.01 0.01 0.02 0.02 0.02 0.02 0.02 0.01 0.01 0.01 0.01 0.01 0.01 0.01 0.01 0.01 0.01 0.01
0.01 0.01 0.01 0.01 0.01 0.01 0.01 0.01 0.01 0.01 0.01 0.02 0.01 0.01 0.01 0.01 0.01 0.00 0.00 0.00 0.00 0.00 0.00 0.01 0.01 0.01 0.01 0.01 0.01 0.01 0.01 0.01 0.01 0.01 0.01 0.01 0.01 0.01 0.01 0.01 0.01 0.01 0.01 0.01
0.01 0.01 0.01 0.01 0.01 0.01 0.01 0.00 0.00 0.00 0.00 0.01 0.01 0.01 0.01 0.00 0.00 0.00 0.00 0.00 0.00 0.00 0.00 0.01 0.01 0.01 0.01 0.01 0.01 0.01 0.01 0.01 0.01 0.01 0.00 0.01 0.01 0.01 0.01 0.01 0.01 0.01 0.01 0.01
0.01 0.00 0.00 0.00 0.01 0.01 0.01 0.00 0.00 0.00 0.00 0.00 0.00 0.00 0.00 0.00 0.00 0.00 0.00 0.00 0.00 0.00 0.01 0.01 0.01 0.01 0.01 0.01 0.01 0.01 0.00 0.00 0.00 0.01 0.01 0.01 0.01 0.01 0.01 0.01 0.01 0.01 0.01 0.01
0.00 0.00 0.00 0.00 0.00 0.01 0.01 0.01 0.01 0.01 0.01 0.00 0.00 0.00 0.01 0.01 0.01 0.01 0.01 0.01 0.01 0.00 0.00 0.00 0.00 0.00 0.00 0.00 0.01 0.01 0.01 0.00 0.00 0.01 0.01 0.01 0.01 0.01 0.01 0.01 0.01 0.01 0.01 0.01
0.00 0.00 0.00 0.00 0.00 0.00 0.00 0.01 0.01 0.01 0.01 0.01 0.01 0.01 0.01 0.01 0.01 0.01 0.01 0.01 0.00 0.00 0.00 0.00 0.00 0.00 0.00 0.00 0.01 0.01 0.01 0.01 0.01 0.01 0.01 0.01 0.01 0.01 0.01 0.01 0.01 0.01 0.01 0.01
MSLP
1020.30 1019.87 1019.40 1018.89 1018.38 1017.85 1017.32 1016.77 1016.20 1015.62 1015.03 1014.44 1013.90 1013.42 1013.05 1012.80 1012.69 1012.72 1012.89 1013.17 1013.53 1013.95 1014.40 1014.86 1015.31 1015.74 1016.16 1016.55 1016.93 1017.28 1017.61 1017.90 1018.16 1018.37 1018.55 1018.69 1018.81 1018.91 1019.02 1019.14 1019.27 1019.42 1019.58 1019.74
1020.76 1020.26 1019.67 1019.03 1018.36 1017.68 1017.02 1016.40 1015.80 1015.25 1014.74 1014.29 1013.89 1013.57 1013.33 1013.19 1013.14 1013.20 1013.35 1013.59 1013.90 1014.26 1014.66 1015.08 1015.51 1015.93 1016.34 1016.73 1017.09 1017.41 1017.70 1017.94 1018.15 1018.31 1018.45 1018.57 1018.67 1018.78 1018.89 1019.02 1019.16 1019.30 1019.44 1019.58
1021.09 1020.51 1019.81 1019.03 1018.22 1017.42 1016.66 1015.98 1015.39 1014.89 1014.48 1014.16 1013.92 1013.76 1013.66 1013.63 1013.65 1013.74 1013.88 1014.09 1014.35 1014.65 1015.00 1015.37 1015.76 1016.16 1016.55 1016.91 1017.24 1017.54 1017.79 1018.00 1018.16 1018.30 1018.42 1018.53 1018.64 1018.76 1018.88 1019.02 1019.16 1019.29 1019.42 1019.51
1021.22 1020.55 1019.74 1018.85 1017.93 1017.04 1016.23 1015.52 1014.96 1014.53 1014.24 1014.06 1013.98 1013.96 1014.00 1014.07 1014.17 1014.29 1014.43 1014.61 1014.82 1015.07 1015.36 1015.68 1016.03 1016.39 1016.74 1017.07 1017.38 1017.64 1017.86 1018.05 1018.20 1018.32 1018.44 1018.56 1018.69 1018.83 1018.97 1019.12 1019.26 1019.38 1019.47 1019.52
1021.12 1020.36 1019.46 1018.49 1017.50 1016.56 1015.72 1015.04 1014.52 1014.18 1014.00 1013.96 1014.02 1014.15 1014.32 1014.49 1014.65 1014.81 1014.96 1015.11 1015.28 1015.48 1015.71 1015.97 1016.27 1016.58 1016.89 1017.20 1017.47 1017.71 1017.92 1018.09 1018.23 1018.37 1018.50 1018.64 1018.79 1018.95 1019.12 1019.27 1019.40 1019.49 1019.54 1019.53
1020.76 1019.93 1018.97 1017.96 1016.94 1016.00 1015.19 1014.55 1014.11 1013.86 1013.79 1013.87 1014.06 1014.31 1014.58 1014.83 1015.06 1015.25 1015.40 1015.54 1015.68 1015.83 1016.01 1016.23 1016.47 1016.74 1017.01 1017.28 1017.53 1017.76 1017.95 1018.12 1018.28 1018.43 1018.58 1018.74 1018.92 1019.09 1019.26 1019.41 1019.52 1019.57 1019.56 1019.49
1020.19 1019.32 1018.34 1017.33 1016.34 1015.44 1014.68 1014.11 1013.74 1013.59 1013.62 1013.80 1014.08 1014.42 1014.77 1015.09 1015.37 1015.58 1015.75 1015.88 1016.00 1016.12 1016.27 1016.44 1016.64 1016.87 1017.11 1017.35 1017.58 1017.80 1017.99 1018.17 1018.34 1018.50 1018.67 1018.85 1019.03 1019.20 1019.36 1019.49 1019.56 1019.57 1019.50 1019.37
1019.48 1018.60 1017.64 1016.67 1015.74 1014.91 1014.24 1013.75 1013.46 1013.38 1013.48 1013.73 1014.08 1014.48 1014.88 1015.25 1015.56 1015.80 1015.99 1016.12 1016.24 1016.35 1016.47 1016.61 1016.79 1016.99 1017.21 1017.44 1017.65 1017.86 1018.06 1018.24 1018.41 1018.59 1018.76 1018.93 1019.10 1019.26 1019.39 1019.48 1019.50 1019.45 1019.33 1019.13
1018.68 1017.83 1016.94 1016.05 1015.21 1014.48 1013.89 1013.48 1013.27 1013.24 1013.39 1013.68 1014.06 1014.48 1014.91 1015.30 1015.63 1015.90 1016.11 1016.27 1016.39 1016.51 1016.63 1016.77 1016.94 1017.13 1017.34 1017.55 1017.77 1017.97 1018.16 1018.34 1018.51 1018.68 1018.84 1018.99 1019.13 1019.25 1019.33 1019.36 1019.33 1019.22 1019.04 1018.80
1017.87 1017.08 1016.27 1015.49 1014.76 1014.13 1013.64 1013.30 1013.14 1013.15 1013.32 1013.61 1013.99 1014.41 1014.84 1015.24 1015.60 1015.90 1016.13 1016.32 1016.48 1016.63 1016.77 1016.93 1017.10 1017.30 1017.50 1017.72 1017.92 1018.12 1018.31 1018.47 1018.63 1018.77 1018.90 1019.01 1019.10 1019.16 1019.18 1019.14 1019.05 1018.88 1018.66 1018.37
1017.08 1016.37 1015.66 1014.99 1014.38 1013.85 1013.44 1013.17 1013.05 1013.08 1013.24 1013.51 1013.87 1014.28 1014.70 1015.10 1015.48 1015.80 1016.08 1016.32 1016.52 1016.71 1016.89 1017.08 1017.28 1017.48 1017.69 1017.90 1018.10 1018.29 1018.46 1018.61 1018.73 1018.84 1018.92 1018.97 1019.00 1018.99 1018.94 1018.84 1018.69 1018.47 1018.20 1017.89
1016.32 1015.69 1015.09 1014.53 1014.02 1013.60 1013.26 1013.04 1012.94 1012.97 1013.11 1013.36 1013.70 1014.08 1014.49 1014.91 1015.30 1015.66 1015.99 1016.28 1016.54 1016.77 1017.00 1017.22 1017.44 1017.66 1017.87 1018.08 1018.27 1018.44 1018.59 1018.71 1018.80 1018.85 1018.88 1018.88 1018.84 1018.77 1018.65 1018.48 1018.27 1018.02 1017.72 1017.39
1015.59 1015.04 1014.54 1014.08 1013.67 1013.32 1013.05 1012.87 1012.79 1012.82 1012.95 1013.18 1013.49 1013.86 1014.27 1014.69 1015.11 1015.51 1015.89 1016.23 1016.54 1016.82 1017.09 1017.34 1017.57 1017.80 1018.01 1018.21 1018.38 1018.53 1018.65 1018.74 1018.79 1018.80 1018.78 1018.72 1018.62 1018.48 1018.30 1018.08 1017.83 1017.53 1017.20 1016.86
1014.90 1014.43 1014.01 1013.63 1013.30 1013.02 1012.80 1012.66 1012.61 1012.64 1012.77 1013.00 1013.30 1013.67 1014.08 1014.52 1014.97 1015.40 1015.82 1016.20 1016.55 1016.87 1017.16 1017.42 1017.66 1017.88 1018.08 1018.26 1018.40 1018.53 1018.62 1018.67 1018.68 1018.66 1018.60 1018.49 1018.34 1018.15 1017.92 1017.66 1017.36 1017.03 1016.68 1016.32
1014.28 1013.87 1013.51 1013.20 1012.93 1012.71 1012.55 1012.45 1012.43 1012.49 1012.63 1012.87 1013.18 1013.56 1013.99 1014.45 1014.92 1015.39 1015.83 1016.23 1016.60 1016.93 1017.22 1017.47 1017.70 1017.89 1018.07 1018.21 1018.33 1018.43 1018.48 1018.51 1018.49 1018.44 1018.34 1018.20 1018.01 1017.78 1017.51 1017.21 1016.88 1016.52 1016.14 1015.75
1013.78 1013.41 1013.10 1012.84 1012.62 1012.46 1012.35 1012.30 1012.32 1012.42 1012.60 1012.86 1013.20 1013.60 1014.06 1014.53 1015.02 1015.49 1015.94 1016.34 1016.70 1017.01 1017.28 1017.51 1017.70 1017.86 1017.99 1018.10 1018.18 1018.24 1018.27 1018.27 1018.23 1018.15 1018.03 1017.86 1017.64 1017.38 1017.08 1016.75 1016.38 1015.98 1015.57 1015.16
1013.44 1013.10 1012.83 1012.61 1012.44 1012.33 1012.27 1012.28 1012.35 1012.50 1012.73 1013.03 1013.41 1013.84 1014.30 1014.79 1015.28 1015.74 1016.17 1016.55 1016.87 1017.14 1017.36 1017.54 1017.68 1017.79 1017.88 1017.95 1017.99 1018.02 1018.02 1017.99 1017.93 1017.83 1017.68 1017.49 1017.25 1016.97 1016.64 1016.27 1015.87 1015.44 1015.00 1014.55
1013.30 1013.00 1012.75 1012.57 1012.45 1012.38 1012.38 1012.44 1012.58 1012.79 1013.06 1013.41 1013.82 1014.27 1014.74 1015.22 1015.69 1016.12 1016.51 1016.84 1017.11 1017.32 1017.48 1017.60 1017.68 1017.74 1017.78 1017.80 1017.81 1017.80 1017.77 1017.72 1017.63 1017.51 1017.34 1017.12 1016.86 1016.54 1016.19 1015.79 1015.35 1014.89 1014.41 1013.93
1013.38 1013.10 1012.89 1012.74 1012.67 1012.65 1012.71 1012.83 1013.02 1013.28 1013.60 1013.98 1014.41 1014.86 1015.33 1015.78 1016.21 1016.59 1016.92 1017.19 1017.39 1017.54 1017.63 1017.69 1017.71 1017.72 1017.71 1017.69 1017.66 1017.62 1017.56 1017.48 1017.37 1017.21 1017.02 1016.77 1016.47 1016.13 1015.74 1015.31 1014.84 1014.35 1013.85 1013.34
1013.63 1013.39 1013.21 1013.11 1013.08 1013.11 1013.22 1013.39 1013.63 1013.93 1014.29 1014.69 1015.12 1015.56 1015.99 1016.40 1016.77 1017.09 1017.35 1017.54 1017.68 1017.76 1017.79 1017.79 1017.77 1017.73 1017.68 1017.63 1017.57 1017.49 1017.40 1017.28 1017.13 1016.94 1016.71 1016.42 1016.09 1015.71 1015.29 1014.83 1014.34 1013.84 1013.31 1012.79
1013.99 1013.79 1013.66 1013.60 1013.62 1013.70 1013.86 1014.07 1014.35 1014.68 1015.05 1015.45 1015.86 1016.26 1016.65 1017.00 1017.30 1017.55 1017.73 1017.86 1017.93 1017.95 1017.93 1017.89 1017.83 1017.76 1017.68 1017.60 1017.51 1017.40 1017.27 1017.11 1016.92 1016.69 1016.41 1016.08 1015.71 1015.30 1014.85 1014.37 1013.87 1013.35 1012.83 1012.31
1014.39 1014.24 1014.17 1014.16 1014.22 1014.35 1014.55 1014.79 1015.09 1015.43 1015.79 1016.17 1016.54 1016.90 1017.22 1017.50 1017.73 1017.90 1018.02 1018.08 1018.09 1018.07 1018.02 1017.95 1017.86 1017.77 1017.67 1017.56 1017.44 1017.30 1017.13 1016.93 1016.69 1016.41 1016.09 1015.72 1015.32 1014.88 1014.41 1013.92 1013.42 1012.91 1012.40 1011.89
1014.76 1014.69 1014.67 1014.72 1014.83 1015.00 1015.22 1015.48 1015.79 1016.11 1016.45 1016.79 1017.11 1017.40 1017.66 1017.86 1018.02 1018.12 1018.17 1018.18 1018.15 1018.09 1018.01 1017.92 1017.82 1017.71 1017.59 1017.47 1017.32 1017.15 1016.94 1016.70 1016.42 1016.10 1015.74 1015.34 1014.91 1014.45 1013.98 1013.49 1013.00 1012.51 1012.02 1011.54
1015.10 1015.10 1015.14 1015.24 1015.39 1015.59 1015.83 1016.10 1016.40 1016.70 1017.00 1017.28 1017.54 1017.77 1017.95 1018.08 1018.16 1018.20 1018.19 1018.15 1018.09 1018.00 1017.90 1017.80 1017.68 1017.56 1017.43 1017.28 1017.11 1016.91 1016.68 1016.40 1016.09 1015.73 1015.34 1014.93 1014.48 1014.03 1013.56 1013.09 1012.62 1012.15 1011.69 1011.24
1015.42 1015.48 1015.59 1015.73 1015.92 1016.14 1016.38 1016.64 1016.92 1017.18 1017.43 1017.66 1017.85 1018.00 1018.11 1018.16 1018.18 1018.16 1018.10 1018.02 1017.92 1017.81 1017.69 1017.57 1017.45 1017.31 1017.17 1017.00 1016.81 1016.59 1016.33 1016.03 1015.69 1015.32 1014.92 1014.50 1014.06 1013.62 1013.17 1012.72 1012.28 1011.84 1011.40 1010.96
1015.77 1015.89 1016.05 1016.23 1016.43 1016.66 1016.90 1017.14 1017.37 1017.59 1017.78 1017.94 1018.07 1018.15 1018.18 1018.18 1018.13 1018.05 1017.95 1017.83 1017.70 1017.56 1017.42 1017.28 1017.14 1016.99 1016.82 1016.64 1016.43 1016.19 1015.91 1015.60 1015.26 1014.89 1014.50 1014.09 1013.67 1013.24 1012.82 1012.40 1011.98 1011.56 1011.14 1010.70
1016.23 1016.40 1016.58 1016.78 1016.99 1017.20 1017.41 1017.61 1017.80 1017.96 1018.09 1018.19 1018.25 1018.26 1018.23 1018.16 1018.07 1017.94 1017.79 1017.63 1017.46 1017.30 1017.13 1016.96 1016.79 1016.62 1016.44 1016.23 1016.01 1015.76 1015.48 1015.17 1014.84 1014.48 1014.11 1013.72 1013.33 1012.93 1012.53 1012.13 1011.73 1011.32 1010.89 1010.44
Thickness
5528 5533 5531 5532 5534 5533 5528 5527 5525 5536 5536 5548 5550 5549 5548 5547 5546 5545 5544 5544 5543 5541 5539 5538 5537 5536 5535 5533 5532 5530 5527 5525 5524 5521 5519 5516 5513 5511 5508 5506 5504 5502 5500 5498
5520 5530 5527 5527 5533 5531 5530 5530 5531 5535 5538 5548 5547 5543 5541 5540 5540 5539 5538 5538 5537 5535 5533 5531 5529 5528 5526 5525 5523 5521 5519 5517 5515 5512 5508 5506 5503 5500 5497 5495 5493 5490 5489 5488
5509 5514 5520 5526 5539 5533 5529 5530 5530 5531 5539 5542 5539 5537 5535 5533 5533 5532 5531 5530 5528 5526 5524 5523 5521 5520 5518 5517 5515 5512 5510 5507 5504 5501 5498 5495 5493 5489 5487 5484 5482 5479 5478 5476
5494 5504 5510 5540 5542 5538 5531 5530 5527 5530 5532 5532 5532 5529 5526 5525 5523 5522 5522 5521 5519 5517 5516 5515 5513 5511 5509 5507 5504 5502 5499 5497 5494 5491 5488 5485 5481 5479 5476 5473 5471 5469 5467 5466
5484 5488 5504 5526 5532 5529 5524 5524 5525 5522 5522 5521 5521 5519 5516 5516 5514 5513 5513 5511 5509 5508 5507 5505 5503 5501 5498 5496 5494 5491 5488 5486 5483 5480 5477 5474 5471 5468 5466 5463 5460 5458 5457 5455
5476 5485 5502 5525 5525 5522 5520 5514 5519 5515 5512 5510 5508 5500 5505 5508 5505 5503 5502 5500 5498 5497 5495 5493 5492 5490 5487 5485 5482 5480 5478 5476 5473 5470 5466 5464 5461 5458 5455 5452 5450 5448 5446 5444
5468 5473 5491 5509 5511 5510 5502 5507 5510 5505 5502 5499 5495 5496 5497 5496 5494 5492 5491 5489 5487 5485 5483 5482 5481 5478 5476 5474 5472 5470 5468 5465 5462 5459 5456 5453 5450 5447 5444 5441 5438 5436 5434 5432
5460 5462 5483 5500 5494 5493 5496 5498 5498 5495 5492 5489 5487 5487 5485 5484 5483 5481 5479 5477 5475 5472 5471 5470 5468 5466 5464 5462 5461 5458 5455 5453 5450 5447 5444 5442 5438 5435 5432 5429 5426 5423 5421 5420
5469 5483 5490 5487 5487 5488 5485 5484 5484 5482 5481 5478 5475 5474 5473 5472 5470 5469 5467 5465 5463 5460 5458 5457 5454 5453 5451 5451 5448 5446 5443 5440 5438 5435 5432 5429 5426 5422 5419 5416 5413 5411 5409 5408
5459 5471 5474 5475 5473 5473 5472 5472 5472 5470 5468 5466 5463 5463 5460 5459 5457 5455 5454 5452 5451 5448 5446 5444 5442 5440 5439 5438 5435 5433 5430 5428 5425 5422 5420 5417 5414 5411 5408 5405 5402 5400 5398 5397
5449 5458 5459 5463 5461 5461 5461 5459 5457 5457 5455 5453 5451 5450 5448 5447 5445 5443 5442 5440 5438 5435 5434 5433 5431 5429 5427 5424 5422 5419 5418 5415 5413 5410 5408 5405 5403 5400 5398 5396 5393 5391 5389 5386
5444 5449 5444 5449 5451 5449 5447 5446 5445 5444 5443 5442 5439 5437 5436 5435 5433 5431 5429 5428 5425 5423 5422 5421 5419 5417 5415 5413 5410 5407 5405 5403 5401 5398 5396 5393 5390 5388 5387 5385 5384 5382 5380 5377
5436 5437 5435 5437 5437 5435 5433 5433 5432 5431 5430 5429 5428 5425 5424 5423 5422 5420 5418 5416 5414 5412 5411 5409 5407 5405 5404 5401 5399 5396 5394 5392 5389 5386 5383 5381 5378 5375 5374 5374 5373 5371 5369 5367
5422 5419 5419 5421 5421 5422 5420 5419 5418 5418 5417 5416 5414 5413 5411 5410 5409 5407 5406 5404 5403 5401 5399 5397 5395 5394 5393 5390 5387 5385 5382 5380 5377 5374 5372 5369 5367 5364 5362 5360 5360 5359 5358 5356
5406 5405 5405 5406 5406 5406 5405 5403 5402 5402 5402 5402 5401 5399 5398 5397 5396 5395 5394 5392 5390 5388 5387 5385 5384 5383 5381 5378 5376 5373 5371 5368 5365 5363 5360 5358 5356 5354 5351 5349 5348 5347 5346 5344
5391 5390 5390 5390 5391 5391 5390 5388 5387 5388 5388 5387 5387 5387 5386 5384 5383 5382 5381 5379 5377 5376 5375 5374 5373 5372 5370 5367 5364 5362 5359 5358 5355 5352 5350 5348 5346 5343 5341 5339 5338 5337 5335 5334
5374 5376 5377 5376 5376 5376 5375 5375 5375 5374 5373 5373 5373 5373 5372 5371 5370 5369 5369 5367 5366 5365 5364 5362 5361 5360 5358 5356 5353 5351 5349 5347 5346 5343 5340 5338 5336 5333 5332 5330 5328 5327 5326 5324
5364 5365 5365 5364 5363 5363 5363 5362 5361 5361 5360 5360 5360 5359 5358 5358 5358 5358 5357 5356 5354 5353 5352 5351 5350 5349 5347 5345 5343 5341 5339 5337 5335 5332 5330 5328 5326 5324 5322 5320 5319 5318 5316 5314
5353 5353 5353 5352 5352 5351 5350 5349 5349 5348 5348 5347 5347 5346 5346 5346 5346 5346 5345 5343 5342 5342 5342 5341 5340 5338 5336 5335 5333 5331 5328 5326 5324 5323 5321 5320 5318 5315 5313 5311 5310 5308 5307 5305
5340 5340 5340 5339 5339 5338 5337 5336 5336 5335 5335 5334 5334 5334 5334 5334 5333 5333 5332 5331 5332 5331 5332 5331 5329 5327 5326 5324 5323 5321 5318 5316 5314 5313 5311 5309 5308 5306 5304 5303 5301 5300 5298 5297
5327 5327 5327 5326 5325 5325 5324 5324 5323 5322 5322 5322 5321 5322 5322 5322 5321 5320 5320 5321 5323 5321 5320 5320 5318 5317 5316 5315 5314 5311 5309 5307 5305 5303 5302 5300 5299 5297 5296 5294 5293 5292 5291 5289
5314 5314 5314 5313 5313 5313 5313 5312 5311 5311 5310 5310 5310 5310 5310 5310 5310 5309 5309 5309 5311 5311 5310 5309 5308 5308 5307 5306 5304 5301 5300 5298 5297 5295 5293 5291 5290 5289 5288 5287 5285 5284 5283 5281
5301 5302 5301 5301 5301 5301 5301 5301 5300 5300 5300 5299 5299 5299 5299 5300 5299 5299 5300 5301 5300 5301 5300 5299 5299 5299 5299 5296 5294 5292 5291 5289 5288 5286 5285 5284 5283 5282 5281 5280 5278 5277 5276 5275
5292 5291 5291 5290 5289 5289 5290 5291 5290 5290 5290 5289 5289 5289 5289 5289 5290 5289 5290 5291 5292 5292 5291 5290 5291 5291 5290 5286 5284 5283 5281 5280 5279 5278 5277 5276 5275 5274 5274 5273 5272 5271 5270 5269
5282 5281 5280 5280 5280 5281 5281 5281 5281 5280 5280 5280 5281 5280 5279 5279 5279 5280 5280 5280 5281 5281 5280 5280 5281 5280 5278 5276 5274 5273 5273 5272 5272 5271 5270 5269 5268 5268 5267 5267 5266 5265 5264 5264
5272 5272 5272 5272 5271 5271 5271 5271 5271 5271 5271 5272 5272 5272 5271 5270 5270 5270 5270 5270 5270 5271 5270 5269 5268 5268 5267 5266 5265 5265 5265 5264 5264 5264 5263 5263 5263 5262 5262 5261 5260 5260 5259 5259
5263 5262 5263 5263 5264 5263 5262 5261 5261 5262 5262 5262 5262 5263 5262 5261 5261 5260 5260 5260 5260 5259 5259 5259 5258 5257 5257 5257 5257 5257 5257 5257 5257 5257 5257 5257 5256 5256 5256 5256 5256 5255 5254 5254